Regional Weather Roundup
Issued by NWS

Home | Current Version | Previous Version | Text Only | Print | Product List | Glossary Off
Versions: 1 2 3 4 5 6 7 8 9 10 11 12 13 14 15 16 17 18 19 20 21 22 23 24 25 26 27 28 29 30 31 32 33 34 35 36 37 38 39 40 41 42 43 44 45 46 47 48 49 50

000
ASUS43 KBIS 231202
RWRND

NORTH DAKOTA REGIONAL WEATHER ROUNDUP
NATIONAL WEATHER SERVICE BISMARCK ND
700 AM CDT MON APR 23 2018

NOTE: "FAIR" INDICATES FEW OR NO CLOUDS BELOW 12,000 FEET WITH NO
SIGNIFICANT WEATHER AND/OR OBSTRUCTIONS TO VISIBILITY.


NDZ001>003-009>011-017-231300-
NORTHWEST NORTH DAKOTA

CITY           SKY/WX    TMP DP  RH WIND       PRES   REMARKS
WILLISTON      MOCLDY    38  32  79 N9        30.25R
6HR MIN TEMP:  34; 6HR MAX TEMP:  43;

MINOT          CLEAR     37  29  72 NW12      30.22R
MINOT AFB      CLEAR     29  26  87 NW9       30.21R
$$

NDZ018>021-031>035-040>046-231300-
SOUTHWEST NORTH DAKOTA

CITY           SKY/WX    TMP DP  RH WIND       PRES   REMARKS
BISMARCK       CLEAR     39  35  86 E3        30.17R
6HR MIN TEMP:  36; 6HR MAX TEMP:  47;

DICKINSON      MOCLDY    41  28  60 N10       30.16R
GARRISON         N/A     39  28  64 NE7       30.19R
6HR MIN TEMP:  35; 6HR MAX TEMP:  44;

HETTINGER ARPT CLEAR     39  33  79 N5        30.15R
$$

NDZ004>008-012>016-024-026-027-054-231300-
NORTHEAST NORTH DAKOTA

CITY           SKY/WX    TMP DP  RH WIND       PRES   REMARKS
GRAND FORKS    FAIR      37  36  96 W6        30.16R
GRND FRKS AFB  FAIR      41  35  80 NW5       30.16R
DEVILS LAKE    FAIR      33  29  85 N7        30.20R
$$

NDZ022-023-025-028>030-036>039-047>053-231300-
SOUTHEAST NORTH DAKOTA

CITY           SKY/WX    TMP DP  RH WIND       PRES   REMARKS
FARGO          CLOUDY    41  36  82 S8        30.19R
6HR MIN TEMP:  41; 6HR MAX TEMP:  47;

JAMESTOWN      CLEAR     38  33  82 N5        30.18R
$$





USA.gov is the U.S. government's official web portal to all federal, state and local government web resources and services.